Baker, OR

5:51 AM PDT on April 23, 2017 (GMT -0700)
Baker City Municipal

Weather History for KBKE - November, 2012

Change the Weather History Date:

Friday, November 16, 2012

  Actual Average Record
Temperature  
Mean Temperature 41 °F 33 °F  
Max Temperature 50 °F 43 °F 58 °F (1999)
Min Temperature 31 °F 22 °F -8 °F (2014)
Degree Days  
Heating Degree Days 24 32  
Month to date heating degree days 452 467  
Since 1 July heating degree days 1423 1546  
Cooling Degree Days 0 0  
Month to date cooling degree days 0 0  
Year to date cooling degree days 184 169  
Moisture  
Dew Point 34 °F    
Average Humidity 73    
Maximum Humidity 89    
Minimum Humidity 56    
Precipitation  
Precipitation T in 0.03 in 0.41 in (1981)
Month to date precipitation 0.07 0.46  
Year to date precipitation 6.99 8.71  
Sea Level Pressure  
Sea Level Pressure 30.02 in    
Wind  
Wind Speed 9 mph (SE)    
Max Wind Speed 17 mph    
Max Gust Speed 21 mph    
Visibility 10 miles    
Events Rain    
T = Trace of Precipitation, MM = Missing Value Source: NWS Daily Summary

Daily Weather History Graph

Daily Weather History Graph

Search for Another Location

Airport or City:

Trip Planner

Search our weather history database for the weather conditions in past years. The results will help you decide how hot, cold, wet, or windy it might be!

Date:

Astronomy

Nov. 16, 2012 Rise Set
Actual Time 6:50 AM PST 4:21 PM PST
Civil Twilight 6:18 AM PST 4:53 PM PST
Nautical Twilight 5:43 AM PST 5:28 PM PST
Astronomical Twilight 5:08 AM PST 6:03 PM PST
Moon 9:51 AM PST (11/16) 7:24 PM PST (11/16)
Length of Visible Light 10h 34m
Length of Day
9h 30m
Waxing Crescent, 12% of the Moon is Illuminated
Nov 16
Waxing Crescent
Nov 20
First Quarter
Nov 28
Full
Dec 6
Last Quarter
Dec 13
New

Hourly Weather History & Observations

Time (PST) Temp. Windchill Dew Point Humidity Pressure Visibility Wind Dir Wind Speed Gust Speed Precip Events Conditions
12:53 AM 39.9 °F 32.9 °F 33.1 °F 77% 30.06 in 10.0 mi ESE 11.5 mph - N/A   Overcast
1:53 AM 39.0 °F 32.8 °F 33.1 °F 79% 30.07 in 10.0 mi ESE 9.2 mph - N/A   Mostly Cloudy
2:53 AM 35.1 °F 32.2 °F 30.9 °F 85% 30.06 in 10.0 mi WSW 3.5 mph - N/A   Scattered Clouds
3:53 AM 33.1 °F 30.0 °F 30.9 °F 92% 30.05 in 10.0 mi WSW 3.5 mph - N/A   Clear
4:53 AM 36.0 °F 33.3 °F 32.0 °F 86% 30.05 in 10.0 mi ESE 3.5 mph - N/A   Clear
5:53 AM 37.9 °F 30.9 °F 33.1 °F 83% 30.04 in 10.0 mi ESE 10.4 mph - N/A   Mostly Cloudy
6:53 AM 34.0 °F 31.0 °F 30.9 °F 89% 30.06 in 10.0 mi South 3.5 mph - N/A   Clear
7:53 AM 37.0 °F 33.3 °F 32.0 °F 82% 30.06 in 10.0 mi South 4.6 mph - N/A   Clear
8:53 AM 39.0 °F 35.7 °F 34.0 °F 82% 30.06 in 10.0 mi SSW 4.6 mph - N/A   Clear
9:53 AM 43.0 °F 41.3 °F 35.1 °F 74% 30.06 in 10.0 mi South 3.5 mph - N/A   Clear
10:53 AM 46.9 °F - 33.1 °F 59% 30.03 in 10.0 mi SE 8.1 mph - N/A   Clear
11:53 AM 48.9 °F - 34.0 °F 56% 30.00 in 10.0 mi East 12.7 mph - N/A   Clear
12:53 PM 46.9 °F - 35.1 °F 63% 29.99 in 10.0 mi East 15.0 mph - N/A   Clear
1:53 PM 48.0 °F - 35.1 °F 61% 29.97 in 10.0 mi East 16.1 mph - N/A   Clear
2:53 PM 48.0 °F - 35.1 °F 61% 29.98 in 10.0 mi East 12.7 mph - N/A   Clear
3:53 PM 45.0 °F 40.6 °F 35.1 °F 68% 30.00 in 10.0 mi East 8.1 mph - N/A   Clear
4:53 PM 43.0 °F 36.4 °F 34.0 °F 71% 30.00 in 10.0 mi East 12.7 mph - N/A   Clear
5:53 PM 42.1 °F 35.7 °F 34.0 °F 73% 29.99 in 10.0 mi East 11.5 mph - N/A   Scattered Clouds
6:53 PM 43.0 °F 38.2 °F 34.0 °F 71% 30.00 in 10.0 mi ESE 8.1 mph - N/A   Overcast
7:53 PM 44.1 °F 40.8 °F 36.0 °F 73% 30.00 in 10.0 mi ESE 5.8 mph - 0.00 in Rain Light Rain
8:53 PM 43.0 °F 38.2 °F 36.0 °F 76% 30.00 in 10.0 mi ESE 8.1 mph - 0.00 in   Overcast
9:53 PM 44.1 °F 38.6 °F 36.0 °F 73% 29.98 in 10.0 mi ESE 10.4 mph - N/A   Overcast
10:53 PM 42.1 °F 35.2 °F 37.0 °F 82% 29.96 in 10.0 mi East 12.7 mph - 0.00 in Rain Light Rain
11:53 PM 42.1 °F 35.7 °F 37.0 °F 82% 29.96 in 10.0 mi ESE 11.5 mph - 0.00 in   Overcast